Regional Weather Roundup
Issued by NWS

Home | Current Version | Previous Version | Graphics & Text | Print | Product List | Glossary On
Versions: 1 2 3 4 5 6 7 8 9 10 11 12 13 14 15 16 17 18 19 20 21 22 23 24 25 26 27 28 29 30 31 32 33 34 35 36 37 38 39 40 41 42 43 44 45 46 47 48 49 50
000
ASUS43 KLMK 292102
RWRKY
KENTUCKY REGIONAL WEATHER ROUNDUP
NATIONAL WEATHER SERVICE LOUISVILLE KY
500 PM EDT SAT AUG 29 2015

NOTE "FAIR" INDICATES FEW OR NO CLOUDS BELOW 12,000 FEET
WITH NO SIGNIFICANT WEATHER AND/OR OBSTRUCTIONS TO VISIBILITY.

KYZ001>023-026-027-061>063-070>075-292200-
WESTERN AND SOUTH CENTRAL KENTUCKY

CITY           SKY/WX    TMP DP  RH WIND       PRES   REMARKS
PADUCAH        FAIR      89  65  44 W7        30.01F HX  91
HENDERSON      FAIR      86  70  58 NW6       30.01F HX  90
OWENSBORO      FAIR      90  67  46 SW9       30.03F HX  93
HOPKINSVILLE   FAIR      89  64  44 CALM      30.03F HX  90
BOWLING GREEN  FAIR      87  68  52 SE14      30.06F HX  90
GLASGOW        NOT AVBL
$$

KYZ024-025-028>034-038-045-046-053-292200-
NORTH CENTRAL KENTUCKY

CITY           SKY/WX    TMP DP  RH WIND       PRES   REMARKS
LOUISVILLE/SDF PTSUNNY   88  65  46 S10       30.03F HX  90
LOUISVILLE/LOU FAIR      87  67  51 S8        30.05F HX  90
FORT KNOX      FAIR      87  66  49 S6        30.04F
$$

KYZ035>037-039>044-047>052-055>060-089>105-292200-
NORTHEAST KENTUCKY

CITY           SKY/WX    TMP DP  RH WIND       PRES   REMARKS
LEXINGTON      FAIR      80  70  71 NE9       30.10F
COVINGTON      PTSUNNY   79  67  66 W14G23    30.09R THUNDER
FRANKFORT      FAIR      86  66  51 SE8       30.06F
$$

KYZ054-064>069-076>088-106>120-292200-
SOUTHEAST KENTUCKY

CITY           SKY/WX    TMP DP  RH WIND       PRES   REMARKS
JACKSON        FAIR      83  64  52 CALM      30.13F
LONDON         FAIR      84  63  49 VRB5      30.12F
SOMERSET       NOT AVBL
MIDDLESBORO    FAIR      84  64  50 S5        30.13F
MONTICELLO     FAIR      84  70  63 SE7       30.13F
$$



USA.gov is the U.S. government's official web portal to all federal, state and local government web resources and services.